Location: Unspecified
(0.0000°N, 0.0000°E)
Time: 06:29:42
(UTC+00:00)

SR - Pass Details

Date: 26 November 2019
Orbit: 573 x 882 km, 66.7° (Epoch: 11 December)

Event Time Altitude Azimuth Distance (km) Brightness Sun altitude
Rises 11:11:16 0° 194° (SSW) 2,912 ? 67.3°
Reaches altitude 10° 11:13:29 10° 190° (S) 2,042 ? 67.5°
Maximum altitude 11:18:03 63° 109° (ESE) 764 ? 67.9°
Drops below altitude 10° 11:23:03 10° 28° (NNE) 2,228 ? 68.3°
Sets 11:25:32 0° 25° (NNE) 3,202 ? 68.4°
